AC4VM Weather Reports


Display with metric or nautical units.
time (UTC)temp
F
wind
direction
speed
MPH
gust
MPH
rain 1hr
in
rain 24hr
in
rain mn
in
humidity
%
barometer
mb
20260504081504 43 258 0.0 0.0 0.00 0.00 0.00 91 1016.0
20260504070106 43 258 0.0 0.0 0.00 0.00 0.00 91 1016.0
20260504044546 45 258 0.0 0.0 0.00 0.00 0.00 88 1016.2
20260504043047 45 258 0.0 0.0 0.00 0.00 0.00 87 1016.1
20260504041542 46 258 0.0 1.0 0.00 0.00 0.00 86 1016.0
20260504040041 46 258 0.0 2.0 0.00 0.00 0.00 87 1016.0
20260504034538 47 258 0.0 0.0 0.00 0.00 0.00 85 1015.9
20260504033037 48 258 0.0 2.0 0.00 0.00 0.00 82 1015.8
20260504031551 48 252 0.0 0.0 0.00 0.00 0.00 80 1015.8
20260504030041 48 0.0 0.0 0.00 0.00 0.00 81 1015.7
20260504024533 49 252 0.0 2.0 0.00 0.00 0.00 80 1015.7
20260504023034 50 252 0.0 2.0 0.00 0.00 0.00 77 1015.5
20260504021532 50 267 2.0 4.0 0.00 0.00 0.00 76 1015.4
20260504020031 51 214 0.0 2.0 0.00 0.00 0.00 76 1015.2
20260504014537 52 214 1.0 2.0 0.00 0.00 0.00 71 1015.0
20260504013035 52 136 0.0 1.0 0.00 0.00 0.00 73 1014.9
20260504011532 53 136 0.0 2.0 0.00 0.00 0.00 67 1015.1
20260504010029 55 68 0.0 1.0 0.00 0.00 0.00 62 1015.0
20260504004530 57 68 0.0 1.0 0.00 0.00 0.00 57 1014.9
20260504003032 59 68 0.0 0.0 0.00 0.00 0.00 51 1014.6
20260504001531 60 68 0.0 1.0 0.00 0.00 0.00 50 1014.6
20260504000025 61 67 0.0 1.0 0.00 0.00 0.00 49 1014.8
20260503234526 62 127 0.0 2.0 0.00 0.00 0.00 47 1014.9
20260503233034 62 127 0.0 1.0 0.00 0.00 0.00 46 1015.0
20260503231521 63 110 0.0 2.0 0.00 0.00 0.00 44 1015.2
20260503230020 64 219 0.0 3.0 0.00 0.00 0.00 41 1015.3
20260503224519 63 210 1.0 3.0 0.00 0.00 0.00 42 1015.6
20260503223017 64 84 1.0 2.0 0.00 0.00 0.00 41 1015.7
20260503221526 64 258 1.0 10.0 0.00 0.00 0.00 41 1015.7
20260503220014 64 49 1.0 7.0 0.00 0.00 0.00 44 1016.0
20260503214514 64 150 1.0 5.0 0.00 0.00 0.00 41 1016.0
20260503213011 64 249 2.0 7.0 0.00 0.00 0.00 41 1016.2
20260503211510 64 241 2.0 8.0 0.00 0.00 0.00 43 1016.3
20260503210009 65 255 4.0 12.0 0.00 0.00 0.00 40 1016.6
20260503204509 64 150 2.0 10.0 0.00 0.00 0.00 36 1016.7
20260503203006 64 281 3.0 11.0 0.00 0.00 0.00 38 1016.8
20260503201505 64 287 3.0 13.0 0.00 0.00 0.00 42 1017.1
20260503200005 64 223 4.0 13.0 0.00 0.00 0.00 41 1017.4
20260503194504 64 273 4.0 12.0 0.00 0.00 0.00 42 1017.7
20260503193002 64 303 1.0 7.0 0.00 0.00 0.00 46 1017.9
20260503191501 63 260 3.0 11.0 0.00 0.00 0.00 42 1018.2
20260503190000 63 231 0.0 4.0 0.00 0.00 0.00 49 1018.2
20260503184600 62 217 1.0 8.0 0.00 0.00 0.00 51 1018.4
20260503183058 62 270 2.0 7.0 0.00 0.00 0.00 45 1018.6
20260503181556 61 246 0.0 3.0 0.00 0.00 0.00 46 1018.8
20260503180101 59 75 5.0 10.0 0.00 0.00 0.00 46 1019.0
20260503174559 60 245 1.0 8.0 0.00 0.00 0.00 45 1019.5
20260503173057 59 262 2.0 7.0 0.00 0.00 0.00 46 1019.4
20260503171553 60 214 1.0 8.0 0.00 0.00 0.00 49 1019.7